Weather History for Wenatchee, WA

Change the Weather History Date:

Monday, February 27, 2012

  Actual Average Record
Temperature  
Mean Temperature 23 °F 34 °F  
Max Temperature 38 °F 43 °F 62 °F (1972)
Min Temperature 8 °F 25 °F 8 °F (2012)
Degree Days  
Heating Degree Days 42 31  
Month to date heating degree days 872 909  
Since 1 July heating degree days 5022 5166  
Cooling Degree Days 0 0  
Month to date cooling degree days 0 0  
Year to date cooling degree days 0 0  
Moisture  
Dew Point 17 °F    
Average Humidity 63    
Maximum Humidity 81    
Minimum Humidity 44    
Precipitation  
Precipitation 0.00 in 0.05 in 0.39 in (1972)
Month to date precipitation 1.60 1.41  
Year to date precipitation 3.31 3.28  
Snow  
Snow 0.00 in 0.10 in - ()
Month to date snowfall 8.3 5.8  
Since 1 July snowfall 25.0 46.2  
Snow Depth 0.00 in    
Sea Level Pressure  
Sea Level Pressure 30.16 in    
Wind  
Wind Speed 4 mph (WNW)    
Max Wind Speed 9 mph    
Max Gust Speed -    
Visibility 10 miles    
Events      
T = Trace of Precipitation, MM = Missing Value Source: NWS Daily Summary

Daily Weather History Graph

Daily Weather History Graph

Search for Another Location

Airport:

Trip Planner

Search our weather history database for the weather conditions in past years. The results will help you decide how hot, cold, wet, or windy it might be!

Date:

Astronomy

Feb. 27, 2012 Rise Set
Actual Time 6:45 AM PST 5:42 PM PST
Civil Twilight 6:14 AM PST 6:13 PM PST
Nautical Twilight 5:39 AM PST 6:48 PM PST
Astronomical Twilight 5:03 AM PST 7:24 PM PST
Moon 8:50 AM PST (2/27) No Moon Set
Length of Visible Light 11h 58m
Length of Day
10h 56m
Waxing Crescent, 30% of the Moon is Illuminated
Feb 27
Waxing Crescent
Feb 29
First Quarter
Mar 8
Full
Mar 14
Last Quarter
Mar 22
New

Hourly Weather History & Observations

Time (PST) Temp. Windchill Dew Point Humidity Pressure Visibility Wind Dir Wind Speed Gust Speed Precip Events Conditions
12:55 AM 28.0 °F 21.7 °F 21.0 °F 75% 30.22 in 10.0 mi WNW 5.8 mph - 0.00 in   Overcast
1:55 AM 27.0 °F 21.6 °F 21.9 °F 81% 30.22 in 10.0 mi NNW 4.6 mph - N/A   Overcast
2:55 AM 25.0 °F 17.1 °F 16.0 °F 69% 30.21 in 10.0 mi North 6.9 mph - N/A   Partly Cloudy
3:55 AM 24.1 °F 18.2 °F 14.0 °F 65% 30.22 in 10.0 mi WNW 4.6 mph - N/A   Clear
4:55 AM 23.0 °F - 12.9 °F 65% 30.24 in 10.0 mi Calm Calm - N/A   Clear
5:55 AM 21.9 °F - 12.0 °F 66% 30.25 in 10.0 mi Calm Calm - N/A   Clear
6:55 AM 19.0 °F - 12.9 °F 77% 30.25 in 10.0 mi Calm Calm - N/A   Clear
7:55 AM 21.9 °F - 14.0 °F 72% 30.26 in 10.0 mi Calm Calm - N/A   Clear
8:55 AM 25.0 °F 19.3 °F 12.9 °F 60% 30.25 in 10.0 mi West 4.6 mph - N/A   Clear
9:55 AM 28.0 °F 19.3 °F 16.0 °F 61% 30.24 in 10.0 mi West 9.2 mph - N/A   Clear
10:55 AM 28.0 °F 20.0 °F 19.0 °F 69% 30.23 in 10.0 mi West 8.1 mph - N/A   Clear
11:55 AM 30.9 °F 23.5 °F 19.0 °F 61% 30.21 in 10.0 mi West 8.1 mph - N/A   Clear
12:55 PM 32.0 °F 28.7 °F 19.0 °F 59% 30.17 in 10.0 mi Variable 3.5 mph - N/A   Clear
1:55 PM 34.0 °F - 19.0 °F 54% 30.14 in 10.0 mi Calm Calm - N/A   Clear
2:55 PM 36.0 °F - 18.0 °F 48% 30.12 in 10.0 mi Calm Calm - N/A   Clear
3:55 PM 37.0 °F 33.3 °F 17.1 °F 44% 30.10 in 10.0 mi West 4.6 mph - N/A   Clear
4:55 PM 37.0 °F - 17.1 °F 44% 30.09 in 10.0 mi Calm Calm - N/A   Clear
5:55 PM 32.0 °F 26.4 °F 18.0 °F 56% 30.07 in 10.0 mi East 5.8 mph - N/A   Clear
6:55 PM 33.1 °F 26.9 °F 17.1 °F 52% 30.06 in 10.0 mi East 6.9 mph - N/A   Clear
7:55 PM 30.9 °F 27.5 °F 17.1 °F 57% 30.06 in 10.0 mi SSE 3.5 mph - N/A   Clear
8:55 PM 28.9 °F - 18.0 °F 64% 30.06 in 10.0 mi Calm Calm - N/A   Clear
9:55 PM 28.0 °F 22.8 °F 19.9 °F 72% 30.06 in 10.0 mi West 4.6 mph - N/A   Clear
10:55 PM 26.1 °F - 18.0 °F 71% 30.06 in 10.0 mi Calm Calm - N/A   Clear
11:55 PM 26.1 °F 21.9 °F 19.9 °F 78% 30.04 in 10.0 mi West 3.5 mph - N/A   Clear